SCP
0 0 1 3 4 4 5 4 4 3 3 3 3 2 2 2 1 1 1 0 0 0 0 0 0 0 0 0 1 2 1 1 0 0 0 0 1 1 1 1 0 0 0
0 0 1 3 4 5 5 4 4 3 3 3 3 2 2 1 1 1 1 0 0 0 0 0 0 0 0 0 1 1 1 1 0 0 0 0 1 1 1 1 0 0 0
0 0 1 2 3 4 4 4 4 3 3 3 3 2 2 1 1 1 1 0 0 0 0 0 0 0 0 0 1 1 1 1 1 0 0 0 1 1 1 0 0 0 0
0 0 0 1 2 3 4 4 3 3 3 3 3 2 2 1 1 1 1 1 0 0 0 0 0 0 0 0 0 0 1 1 1 0 0 0 0 1 0 0 0 0 0
0 0 0 0 1 2 2 3 3 3 2 2 3 2 2 1 1 1 1 1 0 0 0 0 0 0 0 0 0 0 0 1 1 1 0 0 0 0 0 0 0 0 0
0 0 0 0 0 0 1 2 2 2 2 2 2 2 1 1 1 1 1 1 1 0 0 0 0 0 0 0 0 0 0 0 1 1 0 0 0 0 0 0 0 0 0
0 0 0 0 0 0 0 1 1 1 1 1 2 2 1 1 1 1 1 1 1 0 0 0 0 0 0 0 0 0 0 0 0 1 0 0 0 0 0 0 0 0 0
0 0 0 0 0 0 0 0 0 0 1 1 1 1 1 1 1 1 1 1 1 1 0 0 0 0 0 0 0 0 0 0 0 1 1 0 0 0 0 0 0 0 0
0 0 0 0 0 0 0 0 0 0 0 0 1 1 1 1 1 1 1 1 1 1 0 0 0 0 0 0 0 0 0 0 0 0 1 0 0 0 0 0 0 0 0
0 0 0 0 0 0 0 0 0 0 0 0 1 1 1 1 1 1 1 1 1 1 0 0 0 0 0 0 0 0 0 0 0 0 0 0 0 0 0 0 0 0 0
0 0 0 0 0 0 0 0 0 0 0 0 0 0 0 0 1 1 1 1 1 1 1 0 0 0 0 0 0 1 0 0 0 0 0 0 0 0 0 0 0 0 0
0 0 0 0 0 0 0 0 0 0 0 0 0 0 0 0 0 1 1 1 1 1 1 0 0 0 0 0 0 1 1 0 0 0 0 0 0 0 0 0 0 0 0
0 0 0 0 0 0 0 0 0 0 0 0 0 0 0 0 0 0 0 0 1 1 1 0 0 0 0 0 0 1 1 0 0 0 0 0 0 0 0 0 0 0 0
0 0 0 0 0 0 0 0 0 0 0 0 0 0 0 0 0 0 0 0 0 0 1 0 0 0 0 0 1 1 1 0 0 0 0 0 0 0 0 0 0 0 0
0 0 0 0 0 0 0 0 0 0 0 0 0 0 0 0 0 0 0 0 0 1 1 1 1 0 0 0 0 1 1 0 0 0 0 0 0 0 0 0 0 0 0
0 0 0 0 0 0 0 0 0 0 0 0 0 0 0 0 0 0 0 0 0 1 1 1 1 0 0 0 0 0 1 0 0 0 0 0 0 0 0 0 0 0 0
0 0 0 0 0 0 0 0 0 0 0 0 0 0 0 0 0 0 0 0 0 1 1 1 1 0 0 0 0 0 0 0 0 0 0 0 0 0 0 0 0 0 0
0 0 0 0 0 0 0 0 0 0 0 0 0 0 0 0 0 0 0 0 0 1 1 1 0 0 0 0 0 0 0 0 0 0 0 0 0 0 0 0 0 0 0
0 0 0 0 0 0 0 0 0 0 0 0 0 0 0 0 0 0 0 0 0 1 0 0 0 0 0 0 0 0 0 0 0 0 0 0 0 0 0 0 0 0 0
0 0 0 0 0 0 0 0 0 0 0 0 0 0 0 0 0 0 0 0 0 0 0 0 0 0 0 0 0 0 0 0 0 0 0 0 0 0 0 0 0 0 0
0 0 0 0 0 0 0 0 0 0 0 0 0 0 0 0 0 0 0 0 0 0 0 0 0 0 0 0 0 0 0 0 0 0 0 0 0 0 0 0 0 0 0
0 0 0 0 0 0 0 0 0 0 0 0 0 0 0 0 0 0 0 0 0 0 0 0 0 0 0 0 0 0 0 0 0 0 0 0 0 0 0 0 0 0 0
0 0 0 0 0 0 0 0 0 0 0 0 0 0 0 0 0 0 0 0 0 0 0 0 0 0 0 0 0 0 0 0 0 0 0 0 0 0 0 0 0 0 0
0 0 0 0 0 0 0 0 0 0 0 0 0 0 0 0 0 0 0 0 0 0 0 0 0 0 0 0 0 0 0 0 0 0 0 0 0 0 0 0 0 0 0
0 0 0 0 0 0 0 0 0 0 0 0 0 0 0 0 0 0 0 0 0 0 0 0 0 0 0 0 0 0 0 0 0 0 0 0 0 0 0 0 0 0 0
0 0 0 0 0 0 0 0 0 0 0 0 0 0 0 0 0 0 0 0 0 0 0 0 0 0 0 0 0 0 0 0 0 0 0 0 0 0 0 0 0 0 0
Wind_Speed
4 2 2 2 2 1 1 1 2 2 1 0 0 1 1 2 1 1 1 2 2 2 1 1 1 1 2 2 3 3 4 3 3 2 1 0 1 1 1 1 1 1 1
3 2 2 1 2 2 2 2 2 2 2 1 1 2 2 2 2 1 1 2 2 1 1 2 1 2 2 2 2 3 3 2 3 3 2 2 1 1 2 2 2 2 2
3 3 2 2 2 2 2 2 2 2 2 1 0 1 0 1 1 1 1 2 2 2 2 2 2 2 2 3 3 3 4 4 3 3 3 3 3 1 1 2 2 2 2
2 2 3 3 3 3 2 3 2 2 2 1 1 1 2 2 3 2 2 3 2 2 2 2 3 3 2 3 4 3 3 5 4 2 1 1 3 3 2 1 2 3 3
2 3 3 3 4 2 2 2 2 2 2 1 2 2 2 3 3 2 2 3 3 2 3 3 3 3 3 3 3 3 2 4 4 3 2 1 1 2 2 3 2 2 3
2 2 2 2 3 2 1 2 3 2 2 2 2 2 3 3 3 3 3 3 2 3 3 3 3 3 3 4 4 4 4 4 4 3 3 3 3 3 2 3 3 3 2
2 3 3 3 3 2 2 3 3 3 2 2 2 3 3 3 4 4 4 4 3 3 4 3 3 3 4 4 4 4 5 5 6 5 3 3 3 2 2 3 2 2 1
3 3 4 4 3 3 3 3 3 3 3 3 3 3 4 3 4 4 4 4 4 4 4 4 4 4 4 4 4 4 5 5 5 5 5 3 3 2 3 3 3 2 1
4 4 5 3 2 3 3 3 3 4 4 4 4 4 4 4 5 5 4 4 4 4 5 5 4 4 5 5 5 4 5 5 5 6 5 4 3 3 3 3 3 4 4
5 6 5 4 2 2 2 2 3 4 4 4 4 4 4 5 5 4 5 5 5 5 5 5 5 5 5 5 5 4 5 6 5 5 6 5 4 4 3 3 2 3 3
6 6 6 4 3 3 2 3 3 4 4 4 4 4 4 5 4 4 5 5 5 5 5 6 5 5 5 5 5 6 6 7 6 5 6 7 6 5 4 3 3 3 3
6 6 6 5 3 4 4 4 4 4 5 5 5 5 6 5 4 5 5 5 5 5 6 6 6 6 6 6 6 7 7 8 8 7 7 8 6 6 5 4 5 4 3
6 6 6 5 4 4 4 5 5 5 5 5 5 6 6 5 5 5 5 5 5 6 6 6 7 7 6 6 7 7 7 8 8 8 8 8 8 7 5 6 5 4 4
6 6 6 5 5 5 5 5 6 5 6 6 6 6 6 5 5 5 5 5 5 6 6 6 7 7 7 7 7 7 7 8 8 8 8 8 9 9 8 7 7 6 5
7 7 6 6 6 6 5 5 6 6 6 6 6 6 5 5 5 5 5 5 5 6 6 6 7 7 6 6 7 7 8 8 8 8 8 8 9 10 9 7 7 7 6
8 8 7 7 7 7 6 6 6 6 6 6 7 6 5 5 5 5 5 5 5 6 5 6 7 7 6 8 9 8 7 8 8 8 8 7 9 10 10 10 10 9 8
8 8 8 7 7 7 6 6 6 6 6 6 7 6 5 6 6 5 5 5 6 6 6 6 6 7 8 10 10 10 8 8 8 8 8 6 7 9 8 8 9 10 11
8 8 8 8 8 7 6 5 6 6 6 6 7 6 6 6 6 5 6 6 6 6 6 6 7 7 8 9 10 10 8 7 8 8 9 8 8 8 8 7 8 8 8
7 7 7 7 7 7 7 6 6 6 6 7 7 7 6 6 7 6 6 6 5 6 5 6 6 7 8 9 9 9 6 6 7 7 8 9 9 11 11 9 8 8 7
6 7 7 7 7 7 6 6 7 7 8 8 8 8 7 6 7 7 6 6 5 5 5 6 6 7 7 8 9 8 5 6 5 5 7 10 10 12 12 10 9 9 8
7 7 6 6 7 7 6 6 7 8 9 9 9 8 7 6 6 6 5 5 5 5 5 6 6 6 6 7 8 8 5 5 5 5 5 6 10 12 13 11 9 10 7
7 7 6 7 7 6 5 7 8 9 8 8 8 8 7 6 5 5 5 4 4 4 5 4 5 4 4 5 6 8 7 5 5 5 4 5 8 9 11 9 9 9 7
7 7 6 8 7 6 5 7 9 9 8 8 8 8 8 7 5 4 4 4 4 3 4 3 4 4 3 3 5 6 6 6 4 3 5 6 7 7 6 8 9 8 5
6 6 6 7 8 7 7 7 8 8 8 8 8 8 7 7 6 4 3 3 3 3 3 3 3 3 3 2 2 2 2 3 3 2 2 3 4 3 3 4 4 4 4
6 5 6 7 8 8 8 8 7 7 7 8 7 7 6 6 5 5 4 4 4 5 4 3 3 3 3 4 5 3 3 2 3 2 1 2 2 2 2 2 3 3 3
6 6 6 7 8 8 8 8 7 7 7 7 7 6 5 5 5 5 5 6 6 7 7 7 6 5 5 7 6 5 4 3 3 2 2 3 3 3 3 3 3 3 3
Wind_Direction
272 280 284 306 318 306 279 264 281 283 275 268 271 252 287 301 305 289 310 314 316 305 273 250 240 225 209 208 185 170 169 174 154 128 107 68 166 166 187 188 180 168 167
298 307 310 321 311 295 271 258 264 281 262 232 228 219 245 251 260 265 289 300 294 283 274 235 231 232 217 199 185 184 175 183 173 156 149 164 200 218 210 192 190 191 177
258 279 291 299 303 291 284 273 270 271 270 263 221 329 303 284 277 293 280 291 282 271 256 250 227 233 220 210 199 193 185 185 196 184 168 170 193 192 206 201 195 192 185
254 268 287 298 286 278 282 283 270 281 274 217 201 215 242 270 275 278 274 286 278 266 257 251 229 224 225 217 212 199 200 184 194 201 218 200 159 164 182 207 203 198 198
250 264 278 283 281 279 284 285 288 285 267 223 199 214 245 259 277 283 279 282 283 266 255 251 233 220 221 219 215 209 208 195 195 195 192 188 166 173 168 198 198 206 215
274 283 291 299 292 295 307 311 308 289 270 251 224 216 243 268 277 276 271 271 279 278 263 254 238 221 220 218 216 213 207 209 198 196 196 190 182 186 174 187 197 209 217
286 301 313 315 307 322 320 312 312 307 291 267 247 235 241 247 252 250 252 262 267 274 265 258 246 234 225 224 217 215 211 208 201 200 207 208 215 196 184 175 191 218 218
311 303 308 297 296 309 311 309 310 305 300 283 268 249 244 247 254 258 254 251 254 260 263 254 247 247 234 228 220 222 216 207 206 210 209 209 219 201 190 186 177 204 229
319 315 314 300 299 303 301 296 300 304 301 289 283 265 249 255 260 258 260 255 251 257 259 256 252 248 239 226 218 223 216 208 209 210 210 213 219 209 204 193 187 187 210
330 319 313 304 301 289 299 310 296 291 295 292 278 277 264 258 256 255 258 262 258 252 255 255 252 251 245 231 220 226 214 209 214 212 209 213 216 207 200 199 209 203 205
321 316 312 309 311 316 315 313 306 303 303 299 289 281 280 271 257 256 258 258 265 255 250 250 249 247 246 233 221 224 212 208 214 217 215 216 211 205 201 195 200 206 201
317 316 315 314 319 319 317 312 306 304 300 293 289 281 280 275 269 265 263 261 260 260 253 249 247 245 243 237 225 225 219 210 211 215 217 218 212 208 203 199 204 208 206
320 321 325 323 319 312 310 307 301 299 299 293 289 285 275 270 270 271 272 267 261 260 256 247 244 244 242 239 232 228 223 218 216 215 217 218 208 212 208 206 207 210 211
313 317 320 318 319 312 305 301 304 307 303 299 289 280 274 268 266 268 268 270 268 261 255 250 247 245 244 242 239 232 226 223 222 220 219 217 212 213 207 209 209 203 203
319 319 318 319 322 320 312 306 308 309 306 301 297 287 281 272 267 265 264 268 268 267 263 255 252 249 244 239 240 236 227 225 224 221 220 220 220 220 213 209 203 198 201
318 318 320 320 319 318 311 308 308 307 306 303 301 297 291 281 270 265 263 267 269 266 265 260 252 250 249 252 251 245 228 225 223 221 221 221 218 219 220 217 210 204 200
314 316 316 313 311 311 308 306 306 309 307 302 300 298 292 286 276 271 268 264 265 262 261 262 258 256 254 256 253 251 235 225 222 220 217 221 219 215 214 216 217 220 221
313 315 316 317 316 316 312 306 310 308 305 302 301 300 289 288 282 270 266 263 263 258 257 262 259 259 261 261 258 254 235 228 225 221 217 216 217 213 208 208 211 217 221
306 306 308 311 316 320 319 319 319 316 310 304 301 299 290 287 283 272 266 266 264 264 263 264 259 258 264 265 264 252 228 227 228 224 220 216 216 214 207 205 210 216 222
314 314 316 320 321 322 325 325 320 317 309 307 305 303 295 283 279 272 268 269 267 267 272 272 264 258 260 262 260 247 227 225 228 226 224 225 222 213 208 206 206 213 215
313 317 321 319 316 322 327 323 318 310 306 308 306 306 301 287 277 271 267 268 272 273 271 274 276 269 264 261 257 250 234 223 223 227 225 223 222 219 217 217 211 213 202
317 321 320 315 317 324 326 320 315 311 314 314 312 311 309 300 287 276 275 272 268 269 270 275 283 282 274 266 260 257 254 245 228 230 229 225 225 221 218 217 209 199 192
315 319 316 315 321 325 322 313 314 320 320 318 315 315 313 310 303 284 279 280 272 266 273 272 276 289 295 285 280 273 265 258 247 241 237 223 213 205 204 206 200 191 186
312 316 319 319 320 323 321 312 316 323 321 317 317 317 316 317 319 310 294 284 279 273 270 271 277 289 295 287 282 265 258 252 250 249 229 206 195 191 186 192 196 194 192
311 313 312 311 312 318 320 320 323 325 322 319 318 318 317 318 320 319 315 304 293 285 284 276 275 277 281 286 290 276 252 235 216 195 170 166 172 179 178 178 184 187 187
310 314 314 312 313 318 319 322 325 325 323 322 323 321 321 321 320 317 321 325 318 323 322 322 316 310 311 316 311 299 284 269 228 194 183 189 189 188 187 186 186 187 193